TimePST,TemperatureF,Dew PointF,Humidity,Sea Level PressureIn,VisibilityMPH,Wind Direction,Wind SpeedMPH,Gust SpeedMPH,PrecipitationIn,Events,Conditions,WindDirDegrees,DateUTC
12:15 AM,50.0,41.0,71,29.97,10.0,SSW,9.2,-,N/A,,Clear,210,2012-11-07 08:15:00
12:55 AM,48.2,41.0,76,29.99,10.0,SSW,8.1,-,N/A,,Clear,210,2012-11-07 08:55:00
1:15 AM,48.2,39.2,71,30.00,10.0,SW,8.1,-,N/A,,Clear,220,2012-11-07 09:15:00
1:35 AM,46.4,39.2,76,30.00,10.0,SSW,6.9,-,N/A,,Clear,200,2012-11-07 09:35:00
1:55 AM,46.4,39.2,76,30.00,10.0,SSW,5.8,-,N/A,,Clear,210,2012-11-07 09:55:00
2:15 AM,48.2,39.2,71,30.01,10.0,South,3.5,-,N/A,,Clear,180,2012-11-07 10:15:00
2:35 AM,46.4,39.2,76,30.02,10.0,SSW,6.9,-,N/A,,Clear,200,2012-11-07 10:35:00
2:55 AM,46.4,39.2,76,30.02,10.0,SSW,8.1,-,N/A,,Clear,200,2012-11-07 10:55:00
3:15 AM,46.4,39.2,76,30.02,10.0,South,4.6,-,N/A,,Clear,170,2012-11-07 11:15:00
3:35 AM,46.4,39.2,76,30.03,10.0,Calm,Calm,-,N/A,,Clear,0,2012-11-07 11:35:00
3:55 AM,44.6,39.2,81,30.03,10.0,Calm,Calm,-,N/A,,Clear,0,2012-11-07 11:55:00
4:15 AM,44.6,39.2,81,30.03,10.0,South,5.8,-,N/A,,Clear,180,2012-11-07 12:15:00
4:35 AM,46.4,37.4,71,30.04,10.0,Calm,Calm,-,N/A,,Clear,0,2012-11-07 12:35:00
4:55 AM,44.6,37.4,76,30.05,10.0,Calm,Calm,-,N/A,,Clear,0,2012-11-07 12:55:00
5:15 AM,44.6,37.4,76,30.05,10.0,South,3.5,-,N/A,,Partly Cloudy,190,2012-11-07 13:15:00
5:35 AM,44.6,39.2,81,30.06,10.0,SW,5.8,-,N/A,,Clear,220,2012-11-07 13:35:00
5:55 AM,41.0,39.2,93,30.06,10.0,SSW,9.2,-,N/A,,Clear,210,2012-11-07 13:55:00
6:15 AM,44.6,37.4,76,30.06,10.0,SSW,8.1,-,N/A,,Clear,200,2012-11-07 14:15:00
6:35 AM,44.6,39.2,81,30.07,10.0,Calm,Calm,-,N/A,,Clear,0,2012-11-07 14:35:00
6:55 AM,41.0,39.2,93,30.07,10.0,SSW,5.8,-,N/A,,Clear,200,2012-11-07 14:55:00
7:15 AM,41.0,39.2,93,30.08,10.0,SSW,5.8,-,N/A,,Partly Cloudy,200,2012-11-07 15:15:00
7:35 AM,41.0,39.2,93,30.08,10.0,SSW,8.1,-,N/A,,Partly Cloudy,210,2012-11-07 15:35:00
7:55 AM,42.8,39.2,87,30.08,10.0,SSW,5.8,-,N/A,,Clear,200,2012-11-07 15:55:00
8:15 AM,44.6,39.2,81,30.08,10.0,South,6.9,-,N/A,,Clear,190,2012-11-07 16:15:00
8:35 AM,46.4,39.2,76,30.09,10.0,Calm,Calm,-,N/A,,Clear,0,2012-11-07 16:35:00
8:55 AM,46.4,39.2,76,30.09,10.0,South,5.8,-,N/A,,Clear,190,2012-11-07 16:55:00
9:15 AM,48.2,39.2,71,30.09,10.0,South,6.9,-,N/A,,Clear,190,2012-11-07 17:15:00
9:35 AM,48.2,39.2,71,30.09,10.0,SW,8.1,-,N/A,,Clear,220,2012-11-07 17:35:00
9:55 AM,48.2,39.2,71,30.10,10.0,SSW,3.5,-,N/A,,Clear,210,2012-11-07 17:55:00
10:15 AM,50.0,39.2,66,30.09,10.0,SSW,5.8,-,N/A,,Clear,210,2012-11-07 18:15:00
10:35 AM,50.0,37.4,62,30.10,10.0,SW,6.9,-,N/A,,Clear,220,2012-11-07 18:35:00
10:55 AM,50.0,37.4,62,30.10,10.0,SSW,6.9,-,N/A,,Clear,210,2012-11-07 18:55:00
11:15 AM,50.0,37.4,62,30.10,10.0,WSW,5.8,-,N/A,,Clear,240,2012-11-07 19:15:00
11:35 AM,50.0,37.4,62,30.09,10.0,SSW,5.8,-,N/A,,Clear,200,2012-11-07 19:35:00
11:55 AM,50.0,37.4,62,30.09,10.0,SW,5.8,-,N/A,,Clear,230,2012-11-07 19:55:00
12:15 PM,51.8,37.4,58,30.09,10.0,SW,6.9,-,N/A,,Clear,230,2012-11-07 20:15:00
12:35 PM,50.0,37.4,62,30.08,10.0,West,5.8,-,N/A,,Partly Cloudy,260,2012-11-07 20:35:00
12:55 PM,50.0,39.2,66,30.08,10.0,SW,5.8,-,N/A,,Scattered Clouds,230,2012-11-07 20:55:00
1:15 PM,50.0,39.2,66,30.08,10.0,West,5.8,-,N/A,,Partly Cloudy,260,2012-11-07 21:15:00
1:35 PM,50.0,39.2,66,30.08,10.0,SW,5.8,-,N/A,,Clear,230,2012-11-07 21:35:00
1:55 PM,50.0,39.2,66,30.07,10.0,SSW,6.9,-,N/A,Rain,Light Rain,200,2012-11-07 21:55:00
2:15 PM,51.8,39.2,62,30.07,10.0,South,9.2,-,N/A,,Partly Cloudy,180,2012-11-07 22:15:00
2:35 PM,50.0,41.0,71,30.06,10.0,South,9.2,-,N/A,,Clear,190,2012-11-07 22:35:00
2:55 PM,50.0,39.2,66,30.06,10.0,SSW,9.2,-,N/A,,Clear,200,2012-11-07 22:55:00
3:15 PM,50.0,39.2,66,30.06,10.0,South,5.8,-,N/A,,Clear,180,2012-11-07 23:15:00
3:35 PM,50.0,39.2,66,30.06,10.0,South,8.1,-,N/A,,Clear,190,2012-11-07 23:35:00
3:55 PM,50.0,39.2,66,30.05,10.0,South,6.9,-,N/A,,Clear,190,2012-11-07 23:55:00
4:15 PM,48.2,39.2,71,30.05,10.0,SSW,6.9,-,N/A,,Clear,200,2012-11-08 00:15:00
4:35 PM,46.4,39.2,76,30.05,10.0,Calm,Calm,-,N/A,,Clear,0,2012-11-08 00:35:00
4:55 PM,46.4,39.2,76,30.04,10.0,South,3.5,-,N/A,,Clear,190,2012-11-08 00:55:00
5:15 PM,44.6,39.2,81,30.04,10.0,Calm,Calm,-,N/A,,Partly Cloudy,0,2012-11-08 01:15:00
5:35 PM,44.6,41.0,87,30.04,10.0,Calm,Calm,-,N/A,,Scattered Clouds,0,2012-11-08 01:35:00
5:55 PM,44.6,41.0,87,30.03,10.0,Calm,Calm,-,N/A,,Mostly Cloudy,0,2012-11-08 01:55:00
6:15 PM,44.6,41.0,87,30.03,10.0,Calm,Calm,-,N/A,,Mostly Cloudy,0,2012-11-08 02:15:00
6:35 PM,44.6,41.0,87,30.03,10.0,Calm,Calm,-,N/A,,Mostly Cloudy,0,2012-11-08 02:35:00
6:55 PM,44.6,41.0,87,30.02,10.0,Calm,Calm,-,N/A,,Overcast,0,2012-11-08 02:55:00
7:15 PM,44.6,41.0,87,30.02,10.0,Calm,Calm,-,N/A,,Overcast,0,2012-11-08 03:15:00
7:35 PM,44.6,41.0,87,30.01,10.0,Calm,Calm,-,N/A,,Overcast,0,2012-11-08 03:35:00
7:55 PM,46.4,39.2,76,30.01,10.0,Calm,Calm,-,N/A,,Overcast,0,2012-11-08 03:55:00
8:15 PM,44.6,39.2,81,30.01,10.0,Calm,Calm,-,N/A,,Overcast,0,2012-11-08 04:15:00
8:35 PM,44.6,39.2,81,30.00,10.0,Calm,Calm,-,N/A,Rain,Light Rain,0,2012-11-08 04:35:00
8:55 PM,46.4,37.4,71,29.99,10.0,ESE,3.5,-,N/A,,Scattered Clouds,110,2012-11-08 04:55:00
9:15 PM,46.4,37.4,71,29.99,10.0,Calm,Calm,-,N/A,,Mostly Cloudy,0,2012-11-08 05:15:00
9:35 PM,46.4,39.2,76,29.99,10.0,ENE,4.6,-,N/A,,Scattered Clouds,60,2012-11-08 05:35:00
9:55 PM,44.6,39.2,81,29.99,10.0,Calm,Calm,-,N/A,,Partly Cloudy,0,2012-11-08 05:55:00
10:15 PM,44.6,39.2,81,29.98,10.0,Calm,Calm,-,N/A,,Mostly Cloudy,0,2012-11-08 06:15:00
10:35 PM,44.6,39.2,81,29.97,10.0,Calm,Calm,-,N/A,,Mostly Cloudy,0,2012-11-08 06:35:00
10:55 PM,44.6,37.4,76,29.97,10.0,Calm,Calm,-,N/A,,Mostly Cloudy,0,2012-11-08 06:55:00
11:15 PM,44.6,39.2,81,29.96,10.0,ENE,4.6,-,N/A,,Overcast,70,2012-11-08 07:15:00
11:35 PM,44.6,39.2,81,29.95,10.0,Calm,Calm,-,N/A,,Mostly Cloudy,0,2012-11-08 07:35:00
11:55 PM,44.6,39.2,81,29.95,10.0,NE,4.6,-,N/A,,Mostly Cloudy,50,2012-11-08 07:55:00